TimeEDT,TemperatureF,Dew PointF,Humidity,Sea Level PressureIn,VisibilityMPH,Wind Direction,Wind SpeedMPH,Gust SpeedMPH,PrecipitationIn,Events,Conditions,WindDirDegrees,DateUTC
12:53 AM,81.0,75.9,85,29.97,10.0,WSW,5.8,-,N/A,,Clear,240,2013-09-04 04:53:00
1:53 AM,80.1,75.0,85,29.97,10.0,WSW,4.6,-,N/A,,Clear,240,2013-09-04 05:53:00
2:53 AM,79.0,75.0,88,29.99,10.0,SW,5.8,-,N/A,,Clear,230,2013-09-04 06:53:00
3:53 AM,79.0,75.0,88,29.98,10.0,West,4.6,-,N/A,,Clear,270,2013-09-04 07:53:00
4:53 AM,78.1,75.0,90,29.99,10.0,West,5.8,-,N/A,,Clear,270,2013-09-04 08:53:00
5:53 AM,78.1,75.0,90,29.99,9.0,West,3.5,-,N/A,,Clear,270,2013-09-04 09:53:00
6:53 AM,77.0,75.0,94,30.01,8.0,WSW,3.5,-,N/A,,Clear,250,2013-09-04 10:53:00
7:53 AM,78.1,75.0,90,30.03,8.0,SW,4.6,-,N/A,,Clear,220,2013-09-04 11:53:00
8:53 AM,80.1,75.0,85,30.04,9.0,West,3.5,-,N/A,,Clear,280,2013-09-04 12:53:00
9:53 AM,84.0,73.0,69,30.05,10.0,West,3.5,-,N/A,,Clear,280,2013-09-04 13:53:00
10:53 AM,87.1,72.0,61,30.06,10.0,WNW,3.5,-,N/A,,Clear,300,2013-09-04 14:53:00
11:53 AM,88.0,73.0,61,30.06,10.0,SW,5.8,-,N/A,,Clear,230,2013-09-04 15:53:00
12:53 PM,89.1,73.9,61,30.06,10.0,Variable,3.5,-,N/A,,Clear,0,2013-09-04 16:53:00
1:53 PM,90.0,73.9,59,30.05,10.0,SE,10.4,-,N/A,,Clear,140,2013-09-04 17:53:00
2:53 PM,90.0,75.0,61,30.05,10.0,SE,10.4,17.3,N/A,,Clear,140,2013-09-04 18:53:00
3:19 PM,87.8,75.2,66,30.03,10.0,SE,9.2,21.9,N/A,Thunderstorm,Clear,140,2013-09-04 19:19:00
3:53 PM,86.0,75.9,72,30.02,10.0,SSE,8.1,-,N/A,Thunderstorm,Clear,150,2013-09-04 19:53:00
4:05 PM,84.2,75.2,74,30.01,10.0,SSE,8.1,-,N/A,,Clear,150,2013-09-04 20:05:00
4:24 PM,84.2,75.2,74,30.01,10.0,SSE,6.9,-,N/A,Thunderstorm,Thunderstorm,150,2013-09-04 20:24:00
4:53 PM,84.9,75.0,72,30.01,10.0,SE,8.1,-,N/A,Thunderstorm,Partly Cloudy,140,2013-09-04 20:53:00
5:38 PM,84.2,75.2,74,30.02,10.0,Calm,Calm,-,N/A,,Clear,0,2013-09-04 21:38:00
5:48 PM,84.2,73.4,70,30.04,10.0,SSW,5.8,-,N/A,Thunderstorm,Partly Cloudy,200,2013-09-04 21:48:00
5:53 PM,84.0,73.9,72,30.04,10.0,SSW,4.6,-,N/A,Thunderstorm,Partly Cloudy,200,2013-09-04 21:53:00
6:06 PM,84.2,73.4,70,30.04,10.0,South,4.6,-,N/A,,Partly Cloudy,180,2013-09-04 22:06:00
6:53 PM,82.0,73.0,74,30.01,10.0,South,3.5,-,N/A,,Clear,190,2013-09-04 22:53:00
7:53 PM,84.0,75.0,74,30.04,10.0,South,9.2,-,N/A,,Clear,180,2013-09-04 23:53:00
8:53 PM,84.0,75.0,74,30.06,10.0,South,6.9,-,N/A,,Clear,190,2013-09-05 00:53:00
9:53 PM,82.9,75.9,79,30.08,10.0,SSW,8.1,-,N/A,,Clear,210,2013-09-05 01:53:00
10:53 PM,81.0,73.9,79,30.08,10.0,SW,5.8,-,N/A,,Clear,220,2013-09-05 02:53:00
11:53 PM,80.1,73.0,79,30.08,10.0,WSW,5.8,-,N/A,,Clear,250,2013-09-05 03:53:00